Location: Ch�tillon
(48.8024°N, 2.2935°E)
Time: 10:28:56
(UTC+00:00)

DIWATA 2B (PO-101) - Pass Details

Date: 02 July 2022
Orbit: 583 x 599 km, 98.0° (Epoch: 14 August)

Event Time Altitude Azimuth Distance (km) Brightness Sun altitude
Exits shadow 01:48:03 18° 176° (S) 1,477 ? -13.8°
Maximum altitude 01:51:06 70° 257° (WSW) 643 ? -13.6°
Drops below altitude 10° 01:55:20 10° 342° (NNW) 1,951 ? -13.3°
Sets 01:57:32 0° 345° (NNW) 2,858 ? -13.1°
